Location: Harwich
(41.7160°N, 69.9939°W)
Time: 14:05:10
(UTC+01:00)

A-11 Canister half - Pass Details

Date: 02 December 2023
Orbit: 1526 x 1682 km, 47.3° (Epoch: 01 March)

Event Time Altitude Azimuth Distance (km) Brightness Sun altitude
Rises 04:31:28 0° 276° (W) 4,928 11.9 -66.8°
Enters shadow 04:32:42 - 278° (W) 4,548 11.6 -66.9°
Reaches altitude 10° 04:34:44 10° 280° (W) 3,931 - -67.1°
Maximum altitude 04:44:45 64° 1° (N) 1,795 - -68.1°
Drops below altitude 10° 04:54:28 10° 83° (E) 3,824 - -68.9°
Sets 04:57:36 0° 86° (E) 4,788 - -69.1°
